Location: Plateau_FTFHS
(35.6000°N, 81.3500°W)
Time: 06:31:05
(UTC-04:00)

Daily predictions for brighter satellites

Satellite Brightness Start Highest point End
(mag) Time Altitude Azimuth Time Altitude Azimuth Time Altitude Azimuth
RESURS DK-1 4.4 21:12:46 10° NNE 21:15:10 15° NE 21:17:34 10° E
Cosmos 1340 Rocket 2.9 21:15:44 10° S 21:19:45 83° W 21:23:50 10° N
NOSS 3-4 (A) 4.1 21:13:21 10° NW 21:20:29 73° WSW 21:28:04 10° SSE
NOSS 3-4 (C) 4.1 21:13:26 10° NW 21:20:35 74° WSW 21:28:10 10° SSE
Milstar 3 Cent rocket 3.6 21:15:23 10° WSW 21:21:02 42° S 21:31:20 10° ESE
Resurs 01 Rocket 2.6 21:20:37 10° S 21:24:51 47° W 21:29:06 10° NNW
SL-16 R/B 2.2 21:19:43 10° NNW 21:25:25 77° ENE 21:31:03 10° SSE
Resurs 1-3 4.4 21:21:42 10° S 21:25:58 52° W 21:30:16 10° NNW
Cosmos 1939 Rocket 3.0 21:23:10 10° SSE 21:27:06 59° ENE 21:31:07 10° N
Cosmos 1459 Rocket 4.5 21:23:06 10° N 21:29:01 42° ENE 21:34:48 10° SSE
Cosmos 1908 3.9 21:25:35 10° N 21:29:11 36° E 21:32:42 10° SSE
KORONAS-FOTON 4.5 21:29:35 10° SSE 21:33:02 34° E 21:36:29 10° NNE
CZ-3B R/B 3.2 21:32:01 10° SW 21:34:26 73° SE 21:41:02 10° NE
Cosmos 1741 Rocket 4.5 21:29:23 10° SSW 21:34:38 67° WNW 21:39:56 10° NNE
Spot 2 Rocket 4.5 21:30:37 10° S 21:35:27 47° W 21:40:21 10° NNW
USA 186 3.2 21:35:46 10° SSW 21:37:41 23° W 21:39:33 10° NW
H-2A R/B 4.0 21:37:08 10° E 21:40:13 16° ENE 21:43:19 10° NNE
Cosmos 2100 Rocket 4.2 21:34:26 10° N 21:40:41 58° E 21:46:56 10° SSE
Cosmos 1076 Rocket 3.5 21:36:47 10° S 21:41:07 69° E 21:45:27 10° NNE
SL-19 R/B 4.4 21:35:54 10° SSE 21:41:36 79° WSW 21:47:10 10° NNW
GPS 2-05 Rocket1 2.6 21:39:15 10° WSW 21:42:16 54° SSE 21:45:06 11° E
Cosmos 2173 Rocket 4.1 21:41:08 10° N 21:47:14 59° E 21:53:12 11° SSE
Lacrosse 5 2.7 21:43:14 10° NNW 21:48:00 40° NE 21:51:53 15° ESE
SPOT 5 4.3 21:44:58 13° ESE 21:48:05 24° ENE 21:52:04 10° NNE
Cosmos 1818 3.7 21:43:19 10° NNW 21:48:44 74° WSW 21:53:39 12° SSE
Atlas Centaur 2 2.8 21:49:51 10° WSW 21:52:38 19° SSW 21:54:14 15° SSE
Cosmos 1408 Rocket 3.6 21:49:32 10° S 21:53:44 57° E 21:57:59 10° NNE
Cosmos 2061 Rocket 4.2 21:47:41 10° N 21:54:02 62° E 21:59:50 13° SSE
Abrixas rocket 4.3 21:52:13 10° NNW 21:54:42 20° NNE 21:57:10 10° ENE
YAOGAN 6 2.5 21:52:07 13° SSE 21:55:19 88° E 21:59:02 10° N
Cosmos 2227 4.3 21:54:28 10° SSW 22:00:12 82° WNW 22:05:57 10° NNE
Envisat 4.0 21:55:25 10° S 22:00:16 46° W 22:05:09 10° NNW
Cosmos 2221 3.0 21:56:22 10° NNW 22:00:42 60° W 22:05:01 10° S
Cosmos 1626 4.4 22:03:26 11° E 22:03:26 11° E 22:04:18 10° ENE
Meteor 1-29 4.2 22:04:02 10° N 22:07:19 43° WNW 22:10:37 10° SSW
Cosmos 1726 2.5 22:05:52 10° N 22:09:23 43° E 22:10:47 29° SE
Cosmos 1725 Rocket 4.4 22:06:35 10° N 22:12:32 46° E 22:16:09 23° SE
Terra 3.8 22:11:39 12° E 22:13:16 13° ENE 22:15:33 10° NE
Cosmos 1763 Rocket 4.3 22:09:30 10° N 22:14:09 35° ENE 22:16:28 23° ESE
Cosmos 1500 Rocket 4.4 22:13:37 26° SE 22:15:08 33° E 22:19:08 10° NNE
Cosmos 2263 Rocket 2.5 22:11:05 14° S 22:15:29 43° ESE 22:20:45 10° NE
Cosmos 1486 Rocket 4.1 22:10:44 10° S 22:15:50 57° ESE 22:21:02 10° NNE
Tiangong 1 3.1 22:14:22 10° NW 22:16:36 21° N 22:18:28 12° ENE
Cosmos 332 Rocket 4.0 22:12:18 10° N 22:17:10 59° ENE 22:19:40 27° SE
Cosmos 1802 Rocket 3.9 22:11:32 10° N 22:17:41 90° W 22:22:46 16° S
OAO 1 Rocket 4.4 22:13:28 10° W 22:18:51 85° S 22:22:43 19° E
Abrixas 3.5 22:17:49 10° WSW 22:20:24 42° NNW 22:23:00 10° NE
Cosmos 1300 2.8 22:21:27 10° N 22:25:13 54° E 22:26:18 39° SE
SPOT 1/Viking Rocket 3.8 22:33:04 32° SE 22:35:07 51° ENE 22:40:06 10° N
USA 234 3.1 22:29:28 10° NE 22:36:00 70° SE 22:42:30 10° SW
SL-14 R/B 3.4 22:36:06 26° SSW 22:38:15 74° W 22:42:12 10° N
Cosmos 1328 Rocket 3.4 22:34:17 10° N 22:38:38 80° E 22:40:04 41° SSE
Cosmos 2016 Rocket 4.1 22:32:29 10° N 22:38:42 73° W 22:43:03 20° S
Cosmos 1151 Rocket 3.6 22:34:38 10° N 22:38:46 40° E 22:39:31 37° ESE
MetOp-A 4.4 22:39:46 24° S 22:43:00 67° WSW 22:48:20 10° NNW
CZ-4C R/B 3.4 22:46:16 23° E 22:46:16 23° E 22:49:28 10° ENE
ERS-1 Rocket 3.7 22:41:50 19° SSW 22:45:10 47° W 22:50:02 10° NNW
Cosmos 1515 Rocket 3.5 22:42:42 10° N 22:47:02 70° E 22:48:00 51° SE
H-2A R/B 3.6 22:47:34 20° ENE 22:47:52 21° ENE 22:51:01 10° NNE
Cosmos 468 Rocket 4.4 22:43:12 10° NNW 22:48:12 54° WSW 22:50:42 28° SSW
Delta 2 Rocket 4.0 22:42:37 10° W 22:48:20 86° S 22:52:25 20° E
EO 1 Delta rocket 3.7 22:47:13 41° SSE 22:48:48 80° E 22:53:27 10° N
Cosmos 1743 Rocket 3.7 22:46:32 27° SSW 22:48:49 68° W 22:53:09 10° N
USA 245 3.2 22:48:40 55° SSW 22:49:21 73° W 22:53:35 10° NNW
ARGOS 3.2 22:46:39 31° S 22:49:22 76° WSW 22:54:48 10° NNW
Cosmos 2058 2.9 22:50:47 56° SE 22:51:21 64° E 22:55:32 10° NNE
Cosmos 1603 4.1 22:47:30 10° NNW 22:53:00 55° WSW 22:55:39 29° S
RESURS DK-1 3.3 22:49:29 10° NW 22:53:26 41° WSW 22:54:38 33° SSW
Sakura Rocket 4.5 22:46:32 10° W 22:54:25 44° SSW 22:56:13 37° SSE
YAOGAN 11 4.4 22:55:56 38° SSW 22:57:28 63° WSW 23:02:00 10° NNW
Cosmos 1455 3.6 22:54:38 10° NNE 22:57:20 25° ENE 22:57:20 25° ENE
Cosmos 2233 Rocket 3.9 22:55:49 10° N 23:02:00 72° E 23:04:08 42° SSE
Cosmos 1503 Rocket 3.8 23:00:28 40° S 23:02:21 79° ESE 23:07:32 10° NNE
Cosmos 2228 Rocket 3.7 23:01:20 10° NNW 23:05:49 54° W 23:07:15 37° SSW
Cosmos 371 Rocket 3.8 23:01:18 10° NNW 23:05:59 53° WSW 23:07:24 39° SSW
Cosmos 1943 3.1 23:00:21 10° NNW 23:06:02 90° WSW 23:07:41 49° SSE
Cosmos 540 Rocket 4.1 23:02:56 10° N 23:07:46 39° ENE 23:08:29 37° E
H-2A R/B 2.4 23:17:24 43° SSW 23:19:00 62° W 23:24:23 10° NNW
ERBS 3.8 23:16:15 10° NW 23:18:29 32° W 23:18:29 32° W
SPOT 5 4.2 23:24:13 27° SW 23:25:53 34° W 23:30:28 10° NNW
Sich 1 4.2 23:28:52 32° NE 23:28:52 32° NE 23:31:38 10° NNE
H-2A ROCKET BODY 3.1 23:24:13 10° WSW 23:28:35 50° SSE 23:47:05 10° E
Cosmos 2151 4.3 23:27:50 29° WSW 23:29:08 36° W 23:33:07 10° NNW
Lacrosse 5 3.1 23:26:30 10° WNW 23:30:48 28° WSW 23:31:05 28° SW
Abrixas rocket 4.3 23:28:26 10° WNW 23:29:56 24° WNW 23:29:56 24° WNW
Landsat 7 4.1 23:35:07 54° WSW 23:35:33 56° W 23:40:15 10° NNW
Cosmos 1626 3.5 23:38:04 33° WNW 23:38:04 33° WNW 23:41:27 10° NNW
SL-19 R/B 4.2 23:38:04 10° N 23:43:30 78° WNW 23:44:40 57° SW
Cosmos 2278 Rocket 4.1 23:51:08 17° ENE 23:51:08 17° ENE 23:53:06 10° NE
Cosmos 1707 Rocket 4.1 23:44:39 10° N 23:48:18 55° NNE 23:48:18 55° NNE
deb Chang Zheng 4 3.9 23:45:18 10° N 23:49:17 66° NW 23:49:17 66° NW
Terra 2.1 23:50:32 57° W 23:50:32 57° W 23:55:10 10° NNW
